SBIRS GEO-6 (USA 336)

Last updated on Sun Apr 12 2026 00:02:56 GMT+0000 (Coordinated Universal Time)

1 53355U 22092A 26101.33429625 -.00000294 00000+0 00000+0 0 9994 2 53355 3.3738 316.3982 0002124 63.7915 78.7090 1.00271791 13563
UTC large
Height (km)
Speed (km/s)
/
Latitude / Longitude
Inclination (degrees)
Orbital Period (minutes)
Azimuth
Elevation
Range (km)
Doppler Factor

Next 0 passes for location: London (51.5072 / 0.1276)

Sorry there are no passes over London.
SBIRS GEO-6 (USA 336)